Wind_Speed
2 0 1 2 4 4 4 2 3 4 3 4 3 4 5 4 2 3 7 17 28 30 25 20 19 18 17 15 14 13 12 12 12 13 13 12 11 11 11 10 9 10 9 8 7 8 7 7 6
1 1 1 2 5 4 5 2 3 6 8 8 7 4 5 4 5 10 12 17 31 29 26 23 20 18 17 15 14 13 12 12 12 12 13 12 11 10 10 9 8 9 8 7 7 7 6 5 5
2 3 3 4 3 2 3 3 4 6 10 2 5 5 4 3 9 12 12 31 32 28 25 22 20 18 16 14 13 12 11 12 12 11 12 13 13 11 10 8 8 7 6 6 6 6 5 5 6
2 4 4 4 1 5 3 5 9 8 2 6 7 8 6 6 13 15 29 33 31 28 25 23 20 18 16 15 13 12 11 11 12 12 11 13 12 11 11 9 8 7 7 6 5 4 4 5 5
2 3 4 3 3 5 4 7 10 7 4 3 3 4 4 4 16 29 36 32 32 29 25 21 19 17 15 15 13 12 11 11 11 11 11 12 12 11 12 8 7 7 6 6 5 4 4 4 4
3 3 4 2 4 4 5 3 4 3 4 6 5 5 3 17 33 34 33 32 30 30 25 21 18 17 15 14 13 12 11 11 11 11 11 11 12 12 12 8 7 6 6 5 4 3 2 2 3
4 3 0 3 6 6 4 3 2 4 7 4 8 4 2 8 19 35 32 31 30 27 25 22 19 17 15 14 13 12 12 11 11 11 10 10 11 11 10 8 7 6 5 5 4 3 2 1 2
4 4 3 3 2 5 4 4 7 2 1 6 11 7 6 14 24 33 31 30 29 27 25 23 20 18 17 15 13 13 13 13 12 11 10 10 9 9 9 8 7 6 4 4 4 4 3 2 2
4 4 2 4 4 3 5 2 4 2 9 0 3 7 14 28 27 30 27 27 29 27 25 23 21 19 17 15 14 13 13 13 12 11 10 9 9 9 8 7 6 6 5 4 4 4 4 4 3
4 3 7 5 2 4 3 2 7 4 5 4 7 16 29 28 27 24 21 21 26 28 28 25 22 21 19 17 16 15 14 14 14 13 11 10 8 7 5 5 5 6 6 6 5 6 6 7 7
3 4 2 6 7 6 4 4 5 10 5 6 19 20 20 26 22 24 23 33 37 35 30 28 25 23 21 19 17 17 16 15 15 13 11 9 8 7 7 5 5 5 6 6 6 7 7 7 9
4 2 4 7 5 4 5 5 6 4 4 10 20 23 18 18 16 22 23 23 25 31 33 31 28 25 23 20 18 18 18 18 17 15 13 12 10 9 8 8 7 7 7 8 8 9 9 10 11
3 3 5 10 11 4 6 7 8 3 7 11 17 19 19 18 22 26 33 32 31 32 33 32 29 28 26 22 19 19 20 18 17 17 16 15 13 12 11 10 11 10 11 13 12 14 14 15 14
3 6 7 7 9 1 6 2 5 2 11 13 16 16 18 19 23 21 21 23 30 33 33 32 31 29 28 26 22 20 20 18 17 16 16 16 15 14 13 13 12 12 13 15 17 16 18 21 21
2 6 9 4 4 5 9 2 5 8 15 15 15 15 15 14 22 24 30 28 37 37 34 35 33 30 30 27 24 21 19 17 18 17 17 17 18 18 17 15 16 15 14 15 15 15 17 20 20
4 5 4 4 6 3 4 8 5 11 17 16 16 14 15 12 18 24 31 35 37 36 36 36 34 33 31 29 27 22 19 17 16 18 18 19 22 21 21 19 18 17 16 16 15 14 14 15 19
7 3 3 10 3 1 3 3 5 11 14 15 16 16 15 14 11 26 31 37 40 41 38 37 35 34 33 29 26 22 16 15 13 13 16 17 18 21 25 24 23 21 19 19 19 17 14 13 13
5 3 4 6 3 5 3 7 6 17 16 17 15 15 15 14 17 23 30 35 38 40 39 38 37 33 29 26 24 20 17 16 14 14 13 12 13 15 17 25 28 26 23 21 21 20 20 19 19
0 2 6 7 7 6 7 7 9 17 14 11 13 14 14 15 13 19 26 31 33 37 38 38 37 34 31 27 23 20 19 19 18 18 18 19 20 21 22 24 26 27 26 22 24 21 18 19 18
3 4 7 9 5 3 8 12 8 17 22 22 19 16 17 12 8 8 17 29 34 39 38 38 38 34 33 29 25 20 15 13 14 13 13 15 18 19 22 25 26 26 24 25 28 25 18 14 11
4 6 3 9 8 6 5 8 3 7 7 13 9 16 14 16 12 8 13 27 32 34 37 37 37 33 30 27 21 16 12 10 9 9 12 14 15 17 20 22 24 26 22 28 26 19 16 13 8
7 6 7 7 3 5 4 8 5 8 19 15 15 12 10 6 5 4 6 9 20 22 29 31 31 28 26 21 19 18 18 11 4 3 2 5 7 8 12 12 14 13 12 10 7 5 5 12 9
10 8 7 8 5 2 4 2 9 3 8 14 6 6 6 7 8 8 8 12 9 12 14 14 16 19 18 17 15 16 13 3 6 5 4 7 11 12 11 8 7 7 7 5 2 3 4 3 1
7 5 6 2 4 4 6 6 6 5 7 5 6 8 11 10 12 12 16 18 17 17 18 15 14 10 11 12 15 14 11 10 11 8 8 8 9 11 12 11 10 8 7 5 8 7 9 9 12
4 5 3 4 2 6 3 3 8 9 3 10 12 13 14 14 13 12 12 16 17 19 19 20 19 20 16 15 17 17 16 16 14 10 9 8 10 12 13 11 13 14 14 14 16 19 20 20 22
8 9 6 5 3 5 5 6 4 8 14 19 14 17 16 15 13 13 14 19 20 21 24 22 23 23 22 20 23 21 18 17 14 12 11 10 12 13 14 16 19 21 23 24 24 23 22 20 20
4 3 8 7 1 1 3 4 7 9 14 15 16 16 14 14 12 13 16 19 25 17 17 15 21 22 21 21 22 21 19 17 15 14 14 16 19 20 22 24 25 23 22 21 21 21 19 18 18
6 6 2 2 4 6 6 4 7 12 12 13 15 17 16 15 14 12 14 19 22 18 14 14 18 22 19 19 20 20 19 19 18 21 23 24 25 22 21 21 22 22 21 20 20 20 18 17 17
4 4 2 3 5 7 4 6 5 16 19 20 14 14 15 15 15 15 16 23 33 19 20 17 19 20 20 20 22 23 25 25 25 25 23 23 23 22 21 18 17 17 19 18 18 18 17 17 18
10 13 8 5 7 3 4 6 5 7 11 15 14 11 6 7 9 9 16 26 19 21 20 18 20 20 20 21 24 25 24 22 24 24 21 18 17 15 14 13 14 17 16 16 19 20 19 19 20
Wind_Direction
276 201 11 44 47 61 355 358 332 58 62 314 122 148 150 44 99 193 158 156 163 157 157 158 155 145 142 138 133 129 126 124 127 134 138 139 133 128 125 121 130 125 123 127 123 116 110 100 96
196 92 63 84 73 43 302 320 157 179 153 132 82 85 50 78 72 122 117 160 159 156 156 155 150 146 143 139 136 132 130 126 123 124 133 140 135 134 128 125 132 130 131 136 135 129 120 108 106
294 178 82 82 98 165 236 99 201 120 150 125 120 72 88 122 109 140 153 160 156 155 154 150 149 149 142 141 137 135 134 133 127 124 126 134 133 139 142 146 150 137 139 141 139 136 127 121 130
163 30 26 81 186 253 254 113 165 155 105 34 96 79 83 215 141 163 156 156 154 153 153 152 152 150 146 141 141 139 138 136 137 136 134 142 144 148 154 147 151 154 156 156 150 138 121 118 128
72 59 53 62 254 262 258 197 173 157 91 104 57 94 67 44 145 148 154 158 156 154 156 153 155 151 148 143 143 142 142 142 141 140 143 147 149 147 155 150 158 159 159 161 161 149 128 123 133
30 104 50 3 295 279 296 249 194 107 81 120 84 81 39 139 135 150 158 160 159 156 158 156 156 153 153 148 149 146 146 146 146 142 142 148 156 151 157 164 164 162 167 174 179 166 148 134 139
100 66 98 290 321 346 339 53 342 133 135 119 128 80 86 162 152 156 161 161 162 161 161 162 160 160 156 157 152 149 149 149 150 149 148 150 156 167 175 176 174 171 174 183 192 201 226 227 154
99 88 30 307 358 290 292 327 113 61 42 103 138 157 175 190 159 157 160 165 166 168 168 167 163 166 165 163 158 154 154 153 153 153 152 154 157 164 173 178 181 187 194 203 208 215 226 235 255
118 56 312 253 189 223 285 111 97 63 143 231 175 142 151 158 156 147 157 168 170 173 175 174 173 175 171 168 165 163 159 156 156 153 150 155 162 166 171 178 192 200 212 227 232 239 245 258 276
88 121 222 214 304 187 228 86 158 126 196 34 84 104 131 144 151 150 158 170 177 182 183 183 181 181 177 178 176 173 168 162 159 155 155 158 163 169 172 183 200 214 221 233 233 231 249 266 281
162 205 234 282 241 183 280 249 172 134 234 198 153 144 147 154 167 164 174 178 185 188 186 189 188 186 186 185 182 180 177 171 168 169 169 174 190 197 204 204 212 219 227 232 235 237 249 270 283
334 286 275 294 288 115 222 171 147 187 246 153 154 151 153 167 178 178 182 190 188 191 191 193 194 193 192 191 190 187 185 185 182 180 186 193 201 214 217 227 228 231 234 241 244 252 262 270 276
248 301 305 279 288 221 193 215 157 204 120 142 154 158 164 175 188 190 189 190 191 193 193 197 196 197 196 197 198 198 193 191 194 197 202 208 215 222 228 234 237 241 243 252 256 260 263 269 275
238 274 281 289 291 154 155 167 104 167 136 154 169 180 177 181 192 195 190 191 197 196 195 195 197 197 201 203 204 205 206 202 205 213 217 223 228 236 243 242 243 248 250 256 263 273 280 272 272
269 330 334 307 318 357 98 37 241 159 152 166 186 190 192 190 190 196 195 193 201 202 198 198 199 199 204 208 210 213 217 220 222 227 231 235 239 239 242 243 242 248 253 260 267 275 286 280 270
16 51 356 266 327 195 91 241 237 173 161 183 190 197 200 209 200 198 199 200 204 205 204 202 204 206 209 214 213 215 222 227 229 232 240 247 245 246 244 246 246 252 253 257 260 272 289 290 282
358 226 221 311 202 297 116 251 254 178 186 187 194 198 205 215 214 208 202 203 208 209 207 206 207 209 211 216 217 215 209 212 218 225 240 249 247 253 249 252 258 259 261 263 266 267 277 291 293
249 246 264 253 310 14 341 229 234 190 193 196 200 204 206 214 219 209 210 204 207 208 209 207 207 209 208 203 198 201 205 210 222 232 243 252 261 264 261 258 259 260 260 267 267 268 274 284 288
231 253 272 277 283 325 276 268 210 199 201 204 208 208 212 216 216 210 207 202 201 202 204 205 203 204 197 195 202 212 224 233 244 255 262 263 268 269 265 264 264 261 254 266 270 271 278 283 284
249 287 287 285 274 169 299 278 226 193 205 203 198 204 214 214 197 184 189 198 200 200 202 200 201 200 203 211 215 221 231 243 258 267 270 272 271 276 277 272 271 269 265 255 262 262 272 282 270
255 231 237 246 324 246 251 293 244 199 224 218 215 213 208 204 190 174 184 195 199 201 202 203 204 207 212 216 219 225 236 247 262 285 299 294 292 288 279 276 271 268 258 258 265 273 264 275 267
271 214 243 273 10 267 91 293 274 224 204 208 209 203 209 196 116 136 158 172 194 197 204 206 207 209 215 220 222 228 232 232 302 313 336 343 338 320 305 296 290 281 263 267 254 281 278 277 277
245 261 230 250 230 280 235 129 272 82 231 207 160 161 127 101 100 90 80 102 149 180 185 190 199 215 220 222 223 226 237 221 191 158 109 63 55 54 52 56 84 100 115 118 66 351 2 304 22
276 312 286 81 139 237 246 174 280 200 202 162 101 81 91 83 78 69 71 85 106 129 139 149 166 167 198 204 209 221 222 171 146 123 92 63 59 60 62 67 72 74 69 63 80 73 78 75 75
194 76 306 311 183 224 144 132 231 318 154 120 103 88 85 77 72 62 51 50 64 78 103 122 123 107 115 120 123 134 135 132 119 113 102 82 61 56 58 70 77 79 81 87 91 91 86 79 76
193 164 171 213 228 267 129 229 307 337 103 104 91 100 89 81 78 72 63 56 44 64 82 94 99 97 103 104 108 111 121 116 115 108 103 97 88 86 89 89 88 87 91 91 89 84 80 76 72
282 175 196 227 300 288 226 87 50 81 90 103 112 107 104 101 93 87 83 85 82 55 61 85 100 102 105 105 107 107 109 111 112 110 104 101 99 98 97 94 93 91 89 86 82 77 74 72 67
196 193 274 357 198 235 280 215 175 153 139 131 129 127 129 128 123 118 111 99 96 103 105 93 96 97 97 104 106 107 107 105 107 108 106 104 104 102 99 97 94 91 88 84 81 76 74 71 71
292 235 206 173 161 208 228 259 179 168 165 153 151 157 154 144 150 148 130 122 119 123 113 110 103 103 99 98 103 104 104 106 107 106 107 106 103 102 101 98 93 91 92 88 82 76 70 72 74
257 244 190 176 261 238 181 253 331 168 165 151 152 154 155 169 170 142 124 102 102 110 116 112 110 106 108 108 107 107 108 108 109 108 107 109 105 104 105 102 99 99 92 88 86 83 75 72 73
Height
761 762 763 763 788 789 799 783 763 769 771 758 754 761 772 773 781 805 784 787 791 795 800 803 805 806 808 810 811 812 814 815 816 816 817 819 820 821 821 822 823 824 825 826 825 826 826 826 826
761 762 763 771 801 817 804 771 777 765 757 754 756 762 771 785 777 783 787 790 793 797 799 802 805 807 808 811 812 814 815 816 817 817 818 820 821 822 823 824 825 825 826 826 826 827 827 828 828
760 762 770 787 811 816 805 770 772 762 757 756 763 759 770 784 781 784 785 789 793 798 801 803 806 808 809 812 813 815 816 817 818 818 819 820 821 822 823 824 825 826 827 827 827 828 828 829 829
760 763 773 796 802 791 777 770 765 766 759 755 760 775 771 775 777 781 786 791 795 799 803 804 806 809 810 812 814 816 817 818 819 819 820 821 822 823 824 825 825 826 826 827 828 829 830 830 830
760 770 795 803 797 784 771 758 760 765 763 763 762 779 781 780 779 782 788 792 795 800 804 805 808 809 812 813 815 816 818 819 820 820 821 822 823 823 825 826 826 826 827 827 828 829 830 830 831
769 775 804 809 794 773 767 758 762 763 764 766 772 777 787 783 779 785 789 794 798 799 804 806 808 810 812 813 815 816 818 819 820 821 822 823 824 825 825 826 827 827 828 828 829 829 830 831 831
773 788 801 798 793 781 768 751 766 765 767 769 764 787 790 788 786 785 792 795 799 801 803 806 808 810 813 814 815 817 818 820 821 822 823 824 824 825 826 827 827 828 828 829 829 830 830 831 831
770 783 794 794 799 790 763 758 755 764 768 757 762 786 796 785 786 787 793 796 798 801 803 805 807 810 812 814 815 817 819 820 821 822 824 825 826 826 827 828 828 828 828 829 829 830 830 830 831
764 797 808 795 790 778 764 763 755 756 764 761 761 765 767 780 788 788 794 799 798 802 803 805 807 810 812 814 816 817 819 820 822 823 824 825 826 827 827 828 828 829 829 829 829 829 829 829 830
778 803 792 774 770 771 763 757 760 766 769 770 767 766 772 782 787 789 792 797 798 799 801 804 806 809 811 813 816 817 819 820 822 824 825 826 827 827 828 828 828 829 829 828 829 829 829 828 828
774 789 770 761 760 762 766 761 754 766 775 765 768 770 775 781 786 786 789 789 789 793 799 802 805 808 810 813 815 817 819 821 822 824 825 827 827 827 828 828 828 828 828 828 828 828 828 828 827
780 768 767 761 753 759 763 751 758 757 756 751 755 763 772 779 783 783 786 789 792 794 796 800 804 807 809 812 814 816 818 820 822 823 825 826 827 827 827 827 828 828 828 828 828 828 828 827 826
777 768 763 757 757 758 750 753 755 756 754 757 761 766 770 776 779 780 780 784 789 792 795 798 801 805 808 811 813 816 817 818 821 822 824 825 826 826 827 827 827 827 827 827 827 827 827 827 826
768 767 766 758 754 755 756 757 751 759 755 761 764 765 767 772 774 779 783 785 788 790 792 796 799 803 806 809 811 813 816 818 819 821 822 824 825 826 826 826 826 826 826 826 826 826 825 824 824
766 774 766 757 752 755 750 768 766 753 755 762 765 765 766 768 772 774 775 780 783 786 791 793 796 801 804 807 810 813 815 817 819 820 822 823 824 824 824 824 824 824 824 824 824 824 823 821 821
776 782 795 764 756 753 756 790 758 755 757 764 765 765 764 765 765 769 772 776 781 785 788 792 796 798 802 804 808 811 813 815 816 817 819 820 820 821 821 821 820 821 822 821 821 821 821 820 818
802 806 795 782 757 757 761 778 759 755 759 763 763 762 762 762 763 763 767 771 776 780 784 788 792 795 799 803 807 810 812 814 815 815 816 817 817 817 818 819 818 819 819 818 818 817 817 817 816
813 805 796 794 769 766 770 773 760 754 757 758 760 760 760 760 756 758 763 767 772 777 781 785 789 794 799 803 807 809 811 812 812 813 813 814 814 813 813 814 814 815 816 815 815 814 814 813 812
792 799 804 790 773 775 776 774 764 753 757 763 760 760 758 755 752 757 762 766 769 774 778 781 787 792 797 800 803 804 805 806 807 808 809 809 810 810 809 808 807 808 810 812 810 810 809 808 808
794 801 805 785 772 775 776 772 758 751 750 746 750 753 752 753 754 756 760 762 765 768 774 779 784 788 792 795 797 800 802 804 805 805 805 806 805 805 805 804 803 804 806 806 805 804 804 803 803
797 802 800 799 780 772 772 780 762 750 747 745 747 743 744 748 751 754 756 757 761 766 772 777 781 786 789 793 797 800 802 803 804 805 804 803 802 800 799 798 797 797 801 801 801 802 800 801 800
810 784 786 788 792 812 770 805 775 759 747 745 743 747 747 749 750 754 756 758 763 766 771 776 780 784 788 792 796 798 798 801 805 804 804 803 800 798 797 795 795 794 795 798 800 799 801 800 798
791 772 781 782 795 793 784 805 779 759 762 748 752 750 751 754 755 758 760 760 765 769 772 777 780 783 786 790 794 796 799 802 803 803 802 803 801 800 798 796 796 796 795 796 796 798 799 801 798
769 775 778 786 799 818 784 794 788 767 756 756 754 756 758 760 762 766 767 767 768 770 772 778 781 783 785 786 789 795 799 799 802 803 803 805 804 803 802 800 799 799 798 799 797 800 800 802 800
775 797 823 816 817 817 777 794 777 754 740 751 762 763 764 767 769 773 777 779 779 780 780 780 781 784 785 785 786 791 799 800 803 805 805 806 807 806 805 804 802 802 801 802 802 802 804 806 804
784 796 823 831 818 799 770 789 779 757 746 752 762 765 767 770 774 776 779 785 792 789 789 792 792 789 788 793 790 792 799 799 804 806 806 807 807 807 807 806 805 806 807 808 808 809 809 810 809
778 795 781 800 792 803 788 781 773 768 764 762 765 769 770 772 775 777 781 782 784 798 801 800 794 795 797 797 796 797 800 802 805 807 809 810 811 813 813 812 810 810 811 812 814 813 814 814 814
766 766 792 810 815 819 797 778 784 777 772 769 772 771 771 772 773 776 779 783 789 797 806 808 805 801 803 803 801 802 804 806 809 811 812 814 814 816 817 818 818 816 815 816 818 818 819 818 818
778 781 779 787 803 802 809 789 765 764 762 766 773 771 769 771 775 773 773 775 772 804 804 809 806 807 808 808 806 806 808 812 814 815 817 819 820 821 823 824 824 822 820 820 820 822 823 822 822
764 764 775 795 795 796 791 785 768 765 762 762 769 776 780 779 777 776 776 773 787 795 802 808 808 810 811 812 812 814 815 817 819 821 822 824 825 824 825 827 828 827 824 824 824 826 827 826 826